Weather History for KNFL - December, 2012

Change the Weather History Date:

Thursday, December 6, 2012

  Actual Average Record
Temperature  
Mean Temperature 42 °F -  
Max Temperature 49 °F 49 °F 67 °F (1981)
Min Temperature 35 °F 21 °F 5 °F (1931)
Degree Days  
Heating Degree Days 23    
Moisture  
Dew Point 41 °F    
Average Humidity 97    
Maximum Humidity 100    
Minimum Humidity 83    
Precipitation  
Precipitation 0.01 in - - ()
Sea Level Pressure  
Sea Level Pressure 30.04 in    
Wind  
Wind Speed 2 mph (SW)    
Max Wind Speed 7 mph    
Max Gust Speed -    
Visibility 2 miles    
Events Fog    
Averages and records for this station are not official NWS values.
T = Trace of Precipitation, MM = Missing Value Source: NWS Daily Summary

Daily Weather History Graph

Daily Weather History Graph

Search for Another Location

Airport or City:

Trip Planner

Search our weather history database for the weather conditions in past years. The results will help you decide how hot, cold, wet, or windy it might be!

Date:

Astronomy

Dec. 06, 2012 Rise Set
Actual Time 7:01 AM PST 4:31 PM PST
Civil Twilight 6:31 AM PST 5:01 PM PST
Nautical Twilight 5:57 AM PST 5:34 PM PST
Astronomical Twilight 5:25 AM PST 6:07 PM PST
Moon No Moon Rise 11:57 AM PST (12/6)
Length of Visible Light 10h 29m
Length of Day
9h 29m
Waning Gibbous, 48% of the Moon is Illuminated
Dec 6
Waning Gibbous
Dec 13
New
Dec 19
First Quarter
Dec 28
Full
Jan 4
Last Quarter

Hourly Weather History & Observations

Time (PST) Temp. Windchill Dew Point Humidity Pressure Visibility Wind Dir Wind Speed Gust Speed Precip Events Conditions
12:42 AM 42.8 °F - 41.0 °F 93% 30.11 in 0.2 mi North - - N/A Fog Fog
12:56 AM 41.0 °F - 41.0 °F 100% 30.01 in 0.2 mi North - - N/A Fog Fog
1:35 AM 39.2 °F - 37.4 °F 93% 30.10 in 0.5 mi North - - N/A Fog Fog
1:45 AM 39.2 °F - 37.4 °F 93% 30.10 in 0.2 mi North - - N/A Fog Fog
1:56 AM 37.9 °F - 37.9 °F 100% 30.01 in 0.2 mi North - - N/A Fog Fog
2:19 AM 39.2 °F - 37.4 °F 93% 30.10 in 0.2 mi North - - N/A Fog Fog
2:39 AM 39.2 °F - 39.2 °F 100% 30.10 in 0.5 mi North - - N/A Fog Fog
2:56 AM 41.0 °F - 41.0 °F 100% 30.00 in 0.5 mi North - - N/A Fog Fog
3:06 AM 41.0 °F - 39.2 °F 93% 30.09 in 0.2 mi North - - N/A Fog Fog
3:30 AM 39.2 °F - 39.2 °F 100% 30.09 in 0.2 mi North - - N/A Fog Fog
3:56 AM 39.9 °F - 39.9 °F 100% 29.99 in 0.2 mi North - - N/A Fog Fog
4:56 AM 39.9 °F - 39.9 °F 100% 29.99 in 0.2 mi North - - 0.01 in Fog Fog
5:51 AM 41.0 °F - 41.0 °F 100% 30.09 in 0.5 mi Calm Calm - N/A Fog Fog
5:56 AM 41.0 °F - 41.0 °F 100% 30.00 in 0.2 mi Calm Calm - N/A Fog Fog
6:17 AM 41.0 °F 39.0 °F 41.0 °F 100% 30.10 in 0.2 mi WNW 3.5 mph - N/A Fog Fog
6:56 AM 41.0 °F - 41.0 °F 100% 30.00 in 0.2 mi Calm Calm - N/A Fog Fog
7:44 AM 41.0 °F 39.0 °F 41.0 °F 100% 30.10 in 0.1 mi SW 3.5 mph - N/A Fog Fog
7:56 AM 41.0 °F - 41.0 °F 100% 30.01 in 0.1 mi Calm Calm - N/A Fog Fog
8:20 AM 42.8 °F - 42.8 °F 100% 30.11 in 0.5 mi Calm Calm - N/A Fog Fog
8:32 AM 41.0 °F - 41.0 °F 100% 30.11 in 0.1 mi Calm Calm - N/A Fog Fog
8:56 AM 42.1 °F - 41.0 °F 96% 30.01 in 0.1 mi Calm Calm - N/A Fog Fog
9:38 AM 42.8 °F - 42.8 °F 100% 30.12 in 0.1 mi Calm Calm - N/A Fog Light Drizzle
9:50 AM 42.8 °F 40.1 °F 42.8 °F 100% 30.13 in 0.8 mi SSW 4.6 mph - N/A   Light Drizzle
9:56 AM 43.0 °F 40.3 °F 43.0 °F 100% 30.03 in 0.8 mi South 4.6 mph - N/A   Overcast
10:02 AM 42.8 °F 40.1 °F 42.8 °F 100% 30.13 in 1.2 mi SSW 4.6 mph - N/A   Overcast
10:17 AM 42.8 °F 38.6 °F 42.8 °F 100% 30.12 in 1.2 mi SSW 6.9 mph - N/A   Overcast
10:56 AM 44.1 °F 42.5 °F 43.0 °F 96% 30.01 in 1.8 mi WSW 3.5 mph - N/A   Overcast
11:03 AM 44.6 °F 42.2 °F 44.6 °F 100% 30.11 in 6.0 mi WSW 4.6 mph - N/A   Overcast
11:33 AM 44.6 °F - 42.8 °F 93% 30.09 in 6.0 mi Calm Calm - N/A   Overcast
11:56 AM 46.0 °F - 43.0 °F 89% 29.99 in 10.0 mi Calm Calm - N/A   Overcast
12:56 PM 48.0 °F - 43.0 °F 83% 29.97 in 10.0 mi Variable 3.5 mph - N/A   Mostly Cloudy
1:30 PM 48.2 °F - 44.6 °F 87% 30.05 in 10.0 mi North - - N/A   Unknown
1:56 PM 47.8 °F - 43.7 °F 86% 29.96 in 10.0 mi Variable 3.5 mph - N/A   Mostly Cloudy
2:05 PM 48.6 °F - - N/A% 29.96 in 10.0 mi Variable 3.5 mph - N/A   Mostly Cloudy
2:56 PM 49.1 °F - 45.5 °F 87% 29.96 in 10.0 mi Variable 3.5 mph - N/A   Mostly Cloudy
3:56 PM 49.1 °F - 45.3 °F 87% 29.94 in 10.0 mi Variable 3.5 mph - N/A   Mostly Cloudy
4:56 PM 46.2 °F 45.0 °F 46.0 °F 99% 29.94 in 10.0 mi Variable 3.5 mph - N/A   Mostly Cloudy
5:56 PM 42.6 °F 39.9 °F 42.4 °F 99% 29.96 in 10.0 mi Variable 4.6 mph - N/A   Scattered Clouds
6:45 PM 41.0 °F 39.0 °F 41.0 °F 100% 30.06 in 1.0 mi Variable 3.5 mph - N/A   Scattered Clouds
6:56 PM 39.0 °F 36.8 °F 38.8 °F 99% 29.97 in 0.5 mi Variable 3.5 mph - N/A Fog Fog
7:09 PM 37.4 °F 34.9 °F 37.4 °F 100% 30.06 in 0.2 mi Variable 3.5 mph - N/A Fog Fog
7:17 PM 37.4 °F 34.9 °F 37.4 °F 100% 30.06 in 0.1 mi Variable 3.5 mph - N/A Fog Fog
7:43 PM 37.4 °F - 37.4 °F 100% 30.08 in 0.1 mi Calm Calm - N/A Fog Fog
7:56 PM 36.0 °F - 36.0 °F 100% 30.01 in 0.1 mi Calm Calm - N/A Fog Fog
8:49 PM 35.6 °F 32.8 °F 35.6 °F 100% 30.11 in 0.1 mi Variable 3.5 mph - N/A Fog Fog
8:56 PM 35.8 °F 33.0 °F 35.8 °F 100% 30.01 in 0.1 mi Variable 3.5 mph - N/A Fog Fog
9:56 PM 35.6 °F - 35.6 °F 100% 30.01 in 0.1 mi Calm Calm - N/A Fog Fog
10:56 PM 35.6 °F - 35.6 °F 100% 30.01 in 0.1 mi Calm Calm - N/A Fog Fog
11:03 PM - - - N/A% - - North - - N/A Fog Fog
11:56 PM - - - N/A% - - North - - N/A Fog Fog